| time (UTC) | temp F | wind direction | speed MPH | gust MPH | rain 1hr in | rain 24hr in | rain mn in | humidity % | barometer mb |
| 20260506214721 | 59 | 286 | 0.0 | 0.0 | 0.01 | 0.01 | 0.00 | 77 | 1005.1 |
| 20260506213709 | 61 | 348 | 3.0 | 3.0 | 0.00 | 0.00 | 0.00 | 70 | 1005.4 |
| 20260506212656 | 63 | 182 | 0.0 | 0.0 | 0.00 | 0.00 | 0.00 | 59 | 1004.8 |
| 20260506211644 | 63 | 187 | 0.0 | 0.0 | 0.00 | 0.00 | 0.00 | 58 | 1004.6 |
| 20260506210644 | 62 | 168 | 1.0 | 1.0 | 0.00 | 0.00 | 0.00 | 61 | 1004.7 |
| 20260506205631 | 62 | 96 | 2.0 | 2.0 | 0.00 | 0.00 | 0.00 | 63 | 1004.7 |
| 20260506204619 | 59 | 228 | 1.0 | 1.0 | 0.00 | 0.00 | 0.00 | 68 | 1004.5 |
| 20260506203607 | 58 | 186 | 0.0 | 0.0 | 0.00 | 0.00 | 0.00 | 79 | 1004.5 |
| 20260506202555 | 58 | 186 | 0.0 | 0.0 | 0.00 | 0.00 | 0.00 | 77 | 1004.6 |
| 20260506201554 | 58 | 186 | 0.0 | 0.0 | 0.00 | 0.00 | 0.00 | 78 | 1004.6 |
| 20260506200554 | 58 | 186 | 0.0 | 0.0 | 0.00 | 0.00 | 0.00 | 77 | 1004.6 |
| 20260506195544 | 59 | 186 | 0.0 | 0.0 | 0.00 | 0.00 | 0.00 | 76 | 1004.7 |
| 20260506194529 | 59 | 186 | 0.0 | 0.0 | 0.00 | 0.00 | 0.00 | 75 | 1004.7 |
| 20260506193529 | 59 | 186 | 0.0 | 0.0 | 0.00 | 0.00 | 0.00 | 74 | 1004.8 |
| 20260506192517 | 59 | 186 | 0.0 | 0.0 | 0.00 | 0.00 | 0.00 | 76 | 1004.8 |
| 20260506191505 | 60 | 186 | 0.0 | 0.0 | 0.00 | 0.00 | 0.00 | 75 | 1004.6 |
| 20260506190504 | 60 | 186 | 0.0 | 0.0 | 0.00 | 0.00 | 0.00 | 73 | 1004.7 |
| 20260506185505 | 61 | 186 | 0.0 | 0.0 | 0.00 | 0.00 | 0.00 | 73 | 1004.5 |
| 20260506184504 | 61 | 186 | 0.0 | 0.0 | 0.00 | 0.00 | 0.00 | 72 | 1004.5 |
| 20260506183504 | 62 | 186 | 0.0 | 0.0 | 0.00 | 0.00 | 0.00 | 72 | 1004.4 |
| 20260506182452 | 63 | 186 | 0.0 | 0.0 | 0.00 | 0.00 | 0.00 | 70 | 1004.3 |
| 20260506181451 | 64 | 186 | 0.0 | 0.0 | 0.00 | 0.00 | 0.00 | 70 | 1004.3 |
| 20260506180440 | 65 | 186 | 0.0 | 0.0 | 0.00 | 0.00 | 0.00 | 68 | 1004.2 |
| 20260506175440 | 66 | 186 | 0.0 | 0.0 | 0.00 | 0.00 | 0.00 | 68 | 1004.0 |
| 20260506174439 | 67 | 186 | 0.0 | 0.0 | 0.00 | 0.00 | 0.00 | 65 | 1004.0 |
| 20260506173428 | 68 | 186 | 0.0 | 0.0 | 0.00 | 0.00 | 0.00 | 61 | 1004.1 |
| 20260506172427 | 69 | 186 | 0.0 | 0.0 | 0.00 | 0.00 | 0.00 | 57 | 1004.0 |
| 20260506171414 | 70 | 185 | 0.0 | 0.0 | 0.00 | 0.00 | 0.00 | 53 | 1004.1 |
| 20260506170414 | 70 | 254 | 0.0 | 0.0 | 0.00 | 0.00 | 0.00 | 52 | 1004.1 |
| 20260506165402 | 71 | 255 | 0.0 | 0.0 | 0.00 | 0.00 | 0.00 | 48 | 1004.0 |
| 20260506164401 | 72 | 342 | 0.0 | 0.0 | 0.00 | 0.00 | 0.00 | 47 | 1004.1 |
| 20260506163349 | 73 | 0 | 0.0 | 0.0 | 0.00 | 0.00 | 0.00 | 45 | 1004.0 |
| 20260506162336 | 74 | 268 | 1.0 | 1.0 | 0.00 | 0.00 | 0.00 | 43 | 1004.0 |
| 20260506161324 | 74 | 184 | 0.0 | 0.0 | 0.00 | 0.00 | 0.00 | 43 | 1004.1 |
| 20260506160324 | 73 | 217 | 2.0 | 2.0 | 0.00 | 0.00 | 0.00 | 44 | 1004.2 |
| 20260506155311 | 74 | 177 | 2.0 | 2.0 | 0.00 | 0.00 | 0.00 | 44 | 1004.2 |
| 20260506154311 | 76 | 127 | 2.0 | 2.0 | 0.00 | 0.00 | 0.00 | 43 | 1004.3 |
| 20260506153259 | 75 | 300 | 1.0 | 1.0 | 0.00 | 0.00 | 0.00 | 43 | 1004.3 |
| 20260506152246 | 74 | 116 | 0.0 | 0.0 | 0.00 | 0.00 | 0.00 | 43 | 1004.3 |
| 20260506151234 | 75 | 275 | 0.0 | 0.0 | 0.00 | 0.00 | 0.00 | 46 | 1004.3 |
| 20260506150222 | 75 | 72 | 1.0 | 1.0 | 0.00 | 0.00 | 0.00 | 44 | 1004.3 |
| 20260506145222 | 76 | 158 | 3.0 | 3.0 | 0.00 | 0.00 | 0.00 | 39 | 1004.3 |
| 20260506144221 | 77 | 168 | 2.0 | 2.0 | 0.00 | 0.00 | 0.00 | 40 | 1004.3 |
| 20260506143221 | 75 | 252 | 2.0 | 2.0 | 0.00 | 0.00 | 0.00 | 41 | 1004.4 |
| 20260506142221 | 74 | 342 | 1.0 | 1.0 | 0.00 | 0.00 | 0.00 | 44 | 1004.4 |
| 20260506141209 | 75 | 155 | 2.0 | 2.0 | 0.00 | 0.00 | 0.00 | 43 | 1004.4 |
| 20260506140209 | 75 | 284 | 0.0 | 0.0 | 0.00 | 0.00 | 0.00 | 42 | 1004.4 |
| 20260506135157 | 74 | 197 | 2.0 | 2.0 | 0.00 | 0.00 | 0.00 | 42 | 1004.4 |
| 20260506134157 | 73 | 0 | 0.0 | 0.0 | 0.00 | 0.00 | 0.00 | 45 | 1004.4 |
| 20260506133144 | 73 | 210 | 1.0 | 1.0 | 0.00 | 0.00 | 0.00 | 44 | 1004.4 |
| 20260506132144 | 75 | 185 | 3.0 | 3.0 | 0.00 | 0.00 | 0.00 | 41 | 1004.4 |
| 20260506131132 | 76 | 198 | 5.0 | 5.0 | 0.00 | 0.00 | 0.00 | 40 | 1004.4 |
| 20260506130131 | 77 | 116 | 2.0 | 2.0 | 0.00 | 0.00 | 0.00 | 41 | 1004.3 |
| 20260506125136 | 76 | 186 | 3.0 | 4.0 | 0.00 | 0.00 | 0.00 | 42 | 1004.5 |
| 20260506124119 | 74 | 63 | 2.0 | 2.0 | 0.00 | 0.00 | 0.00 | 43 | 1004.4 |
| 20260506123106 | 75 | 217 | 2.0 | 2.0 | 0.00 | 0.00 | 0.00 | 44 | 1004.5 |
| 20260506122106 | 74 | 246 | 1.0 | 1.0 | 0.00 | 0.00 | 0.00 | 46 | 1004.5 |
| 20260506121106 | 74 | 211 | 1.0 | 1.0 | 0.00 | 0.00 | 0.00 | 43 | 1004.6 |
| 20260506120054 | 75 | 228 | 4.0 | 4.0 | 0.00 | 0.00 | 0.00 | 44 | 1004.5 |
| 20260506115053 | 75 | 330 | 2.0 | 2.0 | 0.00 | 0.00 | 0.00 | 46 | 1004.5 |
| 20260506114054 | 73 | 140 | 6.0 | 6.0 | 0.00 | 0.00 | 0.00 | 47 | 1004.6 |
| 20260506113042 | 75 | 198 | 4.0 | 4.0 | 0.00 | 0.00 | 0.00 | 45 | 1004.7 |
| 20260506112041 | 73 | 240 | 4.0 | 4.0 | 0.00 | 0.00 | 0.00 | 47 | 1004.6 |
| 20260506111041 | 73 | 218 | 2.0 | 2.0 | 0.00 | 0.00 | 0.00 | 49 | 1004.7 |
| 20260506110029 | 73 | 197 | 2.0 | 2.0 | 0.00 | 0.00 | 0.00 | 49 | 1004.8 |
| 20260506105029 | 72 | 192 | 3.0 | 4.0 | 0.00 | 0.00 | 0.00 | 49 | 1004.7 |
| 20260506104016 | 70 | 191 | 2.0 | 2.0 | 0.00 | 0.00 | 0.00 | 52 | 1004.8 |
| 20260506103016 | 72 | 228 | 2.0 | 2.0 | 0.00 | 0.00 | 0.00 | 50 | 1004.7 |
| 20260506102004 | 72 | 282 | 1.0 | 1.0 | 0.00 | 0.00 | 0.00 | 50 | 1004.7 |
| 20260506101004 | 71 | 200 | 3.0 | 3.0 | 0.00 | 0.00 | 0.00 | 50 | 1004.6 |
| 20260506095952 | 71 | 255 | 3.0 | 3.0 | 0.00 | 0.00 | 0.00 | 50 | 1004.6 |
| 20260506094951 | 71 | 324 | 1.0 | 1.0 | 0.00 | 0.00 | 0.00 | 51 | 1004.6 |
| 20260506093939 | 72 | 199 | 2.0 | 2.0 | 0.00 | 0.00 | 0.00 | 48 | 1004.5 |
| 20260506092939 | 70 | 216 | 0.0 | 0.0 | 0.00 | 0.00 | 0.00 | 52 | 1004.5 |
| 20260506091927 | 71 | 191 | 4.0 | 4.0 | 0.00 | 0.00 | 0.00 | 50 | 1004.5 |
| 20260506090914 | 71 | 252 | 2.0 | 2.0 | 0.00 | 0.00 | 0.00 | 51 | 1004.5 |
| 20260506085901 | 70 | 19 | 1.0 | 1.0 | 0.00 | 0.00 | 0.00 | 52 | 1004.5 |
| 20260506084901 | 70 | 78 | 0.0 | 0.0 | 0.00 | 0.00 | 0.00 | 54 | 1004.5 |
| 20260506083901 | 69 | 216 | 3.0 | 3.0 | 0.00 | 0.00 | 0.00 | 53 | 1004.5 |
| 20260506082849 | 68 | 240 | 1.0 | 1.0 | 0.00 | 0.00 | 0.00 | 56 | 1004.5 |
| 20260506081849 | 68 | 167 | 2.0 | 2.0 | 0.00 | 0.00 | 0.00 | 56 | 1004.4 |
| 20260506080837 | 68 | 130 | 2.0 | 2.0 | 0.00 | 0.00 | 0.00 | 56 | 1004.3 |
| 20260506072759 | 66 | 204 | 2.0 | 2.0 | 0.00 | 0.00 | 0.00 | 58 | 1004.2 |
| 20260506071759 | 66 | 109 | 2.0 | 2.0 | 0.00 | 0.00 | 0.00 | 58 | 1004.2 |
| 20260506070758 | 67 | 179 | 0.0 | 0.0 | 0.00 | 0.00 | 0.00 | 55 | 1004.1 |
| 20260506061721 | 62 | 150 | 2.0 | 2.0 | 0.00 | 0.00 | 0.00 | 62 | 1003.9 |
| 20260506060709 | 61 | 169 | 3.0 | 3.0 | 0.00 | 0.00 | 0.00 | 63 | 1003.9 |
| 20260506050644 | 61 | 119 | 2.0 | 2.0 | 0.00 | 0.00 | 0.00 | 58 | 1004.1 |
| 20260506044631 | 58 | 216 | 0.0 | 0.0 | 0.00 | 0.00 | 0.00 | 57 | 1004.1 |
| 20260506042631 | 52 | 192 | 0.0 | 0.0 | 0.00 | 0.00 | 0.00 | 68 | 1004.2 |
| 20260506041619 | 51 | 150 | 0.0 | 0.0 | 0.00 | 0.00 | 0.00 | 75 | 1004.1 |
| 20260506040619 | 51 | 150 | 0.0 | 0.0 | 0.00 | 0.00 | 0.00 | 75 | 1004.1 |
| 20260506035618 | 48 | 150 | 0.0 | 0.0 | 0.00 | 0.00 | 0.00 | 76 | 1004.1 |
| 20260506034619 | 45 | 151 | 0.0 | 0.0 | 0.00 | 0.00 | 0.00 | 85 | 1004.1 |
| 20260506033606 | 44 | 151 | 0.0 | 0.0 | 0.00 | 0.00 | 0.00 | 88 | 1004.1 |
| 20260506032606 | 43 | 151 | 0.0 | 0.0 | 0.00 | 0.00 | 0.00 | 88 | 1004.1 |
| 20260506031606 | 43 | 151 | 0.0 | 0.0 | 0.00 | 0.00 | 0.00 | 88 | 1004.2 |
| 20260506030606 | 44 | 151 | 0.0 | 0.0 | 0.00 | 0.00 | 0.00 | 87 | 1004.3 |
| 20260506025554 | 44 | 151 | 0.0 | 0.0 | 0.00 | 0.00 | 0.00 | 86 | 1004.3 |
| 20260506024553 | 44 | 151 | 0.0 | 0.0 | 0.00 | 0.00 | 0.00 | 85 | 1004.3 |
| 20260506023541 | 44 | 132 | 0.0 | 0.0 | 0.00 | 0.00 | 0.00 | 86 | 1004.3 |
| 20260506022541 | 44 | 194 | 0.0 | 0.0 | 0.00 | 0.00 | 0.00 | 85 | 1004.3 |
| 20260506021528 | 44 | 194 | 0.0 | 0.0 | 0.00 | 0.00 | 0.00 | 85 | 1004.4 |
| 20260506020529 | 44 | 194 | 0.0 | 0.0 | 0.00 | 0.00 | 0.00 | 84 | 1004.4 |
| 20260506015528 | 45 | 194 | 0.0 | 0.0 | 0.00 | 0.00 | 0.00 | 83 | 1004.5 |
| 20260506014516 | 46 | 194 | 0.0 | 0.0 | 0.00 | 0.00 | 0.00 | 81 | 1004.5 |
| 20260506013516 | 46 | 194 | 0.0 | 0.0 | 0.00 | 0.00 | 0.00 | 81 | 1004.5 |
| 20260506012504 | 47 | 204 | 0.0 | 0.0 | 0.00 | 0.00 | 0.00 | 80 | 1004.5 |
| 20260506011451 | 46 | 143 | 0.0 | 0.0 | 0.00 | 0.00 | 0.00 | 81 | 1004.5 |
| 20260506010451 | 46 | 143 | 0.0 | 0.0 | 0.00 | 0.00 | 0.00 | 81 | 1004.7 |
| 20260506005450 | 46 | 143 | 0.0 | 0.0 | 0.00 | 0.00 | 0.00 | 81 | 1004.7 |
| 20260506004438 | 46 | 143 | 0.0 | 0.0 | 0.00 | 0.00 | 0.00 | 80 | 1004.7 |
| 20260506003439 | 46 | 142 | 0.0 | 0.0 | 0.00 | 0.00 | 0.00 | 82 | 1004.5 |
| 20260506002438 | 46 | 142 | 0.0 | 0.0 | 0.00 | 0.00 | 0.00 | 80 | 1004.5 |
| 20260506001438 | 47 | 141 | 0.0 | 0.0 | 0.00 | 0.00 | 0.00 | 77 | 1004.6 |
| 20260506000426 | 48 | 142 | 0.0 | 0.0 | 0.00 | 0.00 | 0.00 | 76 | 1004.6 |
| 20260505235426 | 48 | 134 | 0.0 | 0.0 | 0.00 | 0.00 | 0.00 | 75 | 1004.7 |
| 20260505234426 | 48 | 134 | 0.0 | 0.0 | 0.00 | 0.00 | 0.00 | 74 | 1004.8 |
| 20260505233425 | 48 | 68 | 0.0 | 0.0 | 0.00 | 0.00 | 0.00 | 73 | 1004.8 |
| 20260505232413 | 48 | 261 | 0.0 | 0.0 | 0.00 | 0.00 | 0.00 | 72 | 1004.9 |
| 20260505231413 | 49 | 294 | 0.0 | 0.0 | 0.00 | 0.00 | 0.00 | 71 | 1005.0 |
| 20260505230413 | 49 | 293 | 0.0 | 0.0 | 0.00 | 0.00 | 0.00 | 72 | 1004.9 |
| 20260505225401 | 49 | 210 | 0.0 | 0.0 | 0.00 | 0.00 | 0.00 | 71 | 1005.0 |
| 20260505224401 | 50 | 220 | 0.0 | 0.0 | 0.00 | 0.00 | 0.00 | 71 | 1004.9 |
| 20260505223348 | 50 | 356 | 0.0 | 0.0 | 0.00 | 0.00 | 0.00 | 71 | 1004.9 |
| 20260505222348 | 50 | 330 | 0.0 | 0.0 | 0.00 | 0.00 | 0.00 | 68 | 1004.9 |
| 20260505221335 | 51 | 180 | 0.0 | 0.0 | 0.00 | 0.00 | 0.00 | 67 | 1004.9 |
| 20260505220336 | 51 | 198 | 0.0 | 0.0 | 0.00 | 0.00 | 0.00 | 65 | 1004.9 |